STARLINK-31850, 59903

Orbit data source: Space-Track

STARLINK-31850, 59903 is a payload satellite owned by SpaceX/Seattle (US) in LEO that was launched on Tue, 28 May 2024 UTC via an FALCON 9 launch vehicle from the Air Force Eastern Test Range (AFETR). Payload-class satellites include a variety of spacecraft equipped with specific instruments for various scientific and technological missions. These include communications satellites like Starlink; space stations such as the ISS; scientific satellites like the Hubble; Earth observation satellites from companies like Planet Labs, Umbra, and HawkEye 360; GPS; miniature CubeSats for education and research; and military/defense satellites.

Loading next visibility...
Identifier
59903, 2024-100U
Orbit
LEO
Country
Flag of USUS
Related business
Manufacturer
SpaceX/Seattle
Mission
Operational Commercial Communications
Bus & Motor
STARLINK V2M, Unknown motor
Mass
730 kg wet, ~700 kg dry
Launch date (UTC)
2024-05-28 (2 years ago)
Launch vehicle
FALCON 9
Launch site
Air Force Eastern Test Range (AFETR)
Object type
Payload
Rocket body
Debris
Shape & HBR
Box + 2 Pan, 17.7 m
Radar Cross Section
33.884 m², Large (>1 m²)

Expand to show TLE details & history
Last TLE update: 1 day ago

TLE from 1 day ago
0 STARLINK-31850
1 59903U 24100U   25353.68018667 -.00000816  00000-0 -20147-4 0  9998
2 59903  43.0014 216.9650 0001037 283.1635  76.9101 15.27571433 88860
Epoch: 2025-12-19T16:19Z
TLE epoch observation values (Epoch: 2025-12-19T16:19:28.128Z)
Latitude
-0°
Longitude
-116.42007°
Altitude
482.689 km
Speed
7.626 km/s
True Right ascension
14h 27m 51s
True Declination
0° 00' 00"
Sunlit
Object was in daylight at epoch
Visualization orbit readout
Latitude
Unknown
Longitude
Unknown
Altitude
Unknown
Speed
Unknown
Apparent Right ascension
Unknown
Apparent Declination
Unknown
Sunlit
N/A
Visualization observer readout
Local Sidereal Time
21:24:00
Azimuth
Unknown
Elevation
Unknown
Doppler factor
Unknown
Orbital elements
Apogee altitude
485.731 km
Perigee altitude
484.308 km
Semi-major axis
6,863.157 km
Eccentricity
0.0001
Inclination
43.0014°
RAAN
216.965°
Arg. of periapsis
283.1635°
True anomaly
76.92167°
Mean anomaly
76.9101°
Eccentric anomaly
76.91589°
Mean motion
3.81731 °/min
Orbital period
94.31 mins
BSTAR
-0.000020147
Loading maneuver chart data...
Computing Atmospheric mass density...
Loading historical data...
Loading historical data...
Loading historical data...
Loading historical data...
Loading historical data...
Loading historical data...
Loading historical data...

Documentation

Showing up to 5 results
|